F5OZP-13 Weather Reports


time (UTC)temp
C
wind
direction
speed
KPH
gust
KPH
rain 1hr
cm
rain 24hr
cm
rain mn
cm
humidity
%
barometer
mb
20260502160555 19 0.0 0.0 0.00 0.00 0.00 99 1016.8
20260502151934 19 0.0 0.0 0.00 0.00 0.00 99 1016.6
20260502151426 18 0.0 0.0 0.00 0.00 0.00 99 1016.7
20260502150923 18 0.0 0.0 0.00 0.00 0.00 99 1016.8
20260502150422 19 0.0 0.0 0.00 0.00 0.00 99 1016.5
20260502130610 20 0.0 0.0 0.00 0.00 0.00 99 1018.0
20260502130110 20 0.0 0.0 0.00 0.00 0.00 99 1017.8
20260502123522 22 0.0 0.0 0.00 0.00 0.00 99 1017.5
20260502123021 22 0.0 0.0 0.00 0.00 0.00 99 1017.5
20260502122505 22 0.0 0.0 0.00 0.00 0.00 99 1017.4
20260502121957 21 0.0 0.0 0.00 0.00 0.00 99 1017.4
20260502121449 21 0.0 0.0 0.00 0.00 0.00 99 1017.5
20260502120941 21 0.0 0.0 0.00 0.00 0.00 99 1017.5
20260502120437 22 0.0 0.0 0.00 0.00 0.00 99 1017.5
20260502115421 22 0.0 0.0 0.00 0.00 0.00 99 1017.5
20260502114913 21 0.0 0.0 0.00 0.00 0.00 99 1017.7
20260502114407 22 0.0 0.0 0.00 0.00 0.00 99 1017.7
20260502113857 22 0.0 0.0 0.00 0.00 0.00 99 1017.8
20260502113349 20 0.0 0.0 0.00 0.00 0.00 99 1017.9
20260502112849 19 0.0 0.0 0.00 0.00 0.00 99 1018.0
20260502112332 20 0.0 0.0 0.00 0.00 0.00 99 1018.1
20260502111824 20 0.0 0.0 0.00 0.00 0.00 99 1018.2
20260502111316 21 0.0 0.0 0.00 0.00 0.00 99 1018.4
20260502110807 21 0.0 0.0 0.00 0.00 0.00 99 1018.3
20260502110300 22 0.0 0.0 0.00 0.00 0.00 99 1018.3
20260502105759 21 0.0 0.0 0.00 0.00 0.00 99 1018.2
20260502105243 22 0.0 0.0 0.00 0.00 0.00 99 1018.1
20260502104735 22 0.0 0.0 0.00 0.00 0.00 99 1018.1
20260502104228 22 0.0 0.0 0.00 0.00 0.00 99 1018.1
20260502103719 21 0.0 0.0 0.00 0.00 0.00 99 1018.0
20260502103211 21 0.0 0.0 0.00 0.00 0.00 99 1018.0
20260502102710 20 0.0 0.0 0.00 0.00 0.00 99 1018.0
20260502102154 20 0.0 0.0 0.00 0.00 0.00 99 1017.8
20260502101646 20 0.0 0.0 0.00 0.00 0.00 99 1017.8
20260502101138 20 0.0 0.0 0.00 0.00 0.00 99 1017.7
20260502100634 20 0.0 0.0 0.00 0.00 0.00 99 1017.7
20260502100126 19 0.0 0.0 0.00 0.00 0.00 99 1017.9
20260502091518 18 0.0 0.0 0.00 0.00 0.00 99 1017.8
20260502091010 18 0.0 0.0 0.00 0.00 0.00 99 1017.7
20260502090501 18 0.0 0.0 0.00 0.00 0.00 99 1017.7
20260502071206 15 0.0 0.0 0.00 0.00 0.00 99 1017.9
20260502070703 15 0.0 0.0 0.00 0.00 0.00 99 1017.7
20260502070155 15 0.0 0.0 0.00 0.00 0.00 99 1017.9
20260502065647 14 0.0 0.0 0.00 0.00 0.00 99 1017.9
20260502065146 14 0.0 0.0 0.00 0.00 0.00 99 1017.9
20260502064630 14 0.0 0.0 0.00 0.00 0.00 99 1017.9
20260502064122 14 0.0 0.0 0.00 0.00 0.00 99 1017.8
20260502063614 14 0.0 0.0 0.00 0.00 0.00 99 1017.9
20260502063106 14 0.0 0.0 0.00 0.00 0.00 99 1017.9
20260502062557 14 0.0 0.0 0.00 0.00 0.00 99 1018.0
20260502062057 13 0.0 0.0 0.00 0.00 0.00 99 1018.1
20260502061541 13 0.0 0.0 0.00 0.00 0.00 99 1018.0
20260502061033 13 0.0 0.0 0.00 0.00 0.00 99 1018.1
20260502060529 14 0.0 0.0 0.00 0.00 0.00 99 1018.0
20260502060021 14 0.0 0.0 0.00 0.00 0.00 99 1018.1
20260502055513 14 0.0 0.0 0.00 0.00 0.00 99 1018.1
20260502055013 13 0.0 0.0 0.00 0.00 0.00 99 1018.1
20260502054457 13 0.0 0.0 0.00 0.00 0.00 99 1018.1
20260502053948 13 0.0 0.0 0.00 0.00 0.00 99 1018.1
20260501213557 18 0.0 0.0 0.00 0.00 0.00 99 1019.4
20260501213048 18 0.0 0.0 0.00 0.00 0.00 99 1019.4
20260501212540 18 0.0 0.0 0.00 0.00 0.00 99 1019.4
20260501212040 18 0.0 0.0 0.00 0.00 0.00 99 1019.4
20260501211524 19 0.0 0.0 0.00 0.00 0.00 99 1019.4
20260501211016 19 0.0 0.0 0.00 0.00 0.00 99 1019.4
20260501210512 19 0.0 0.0 0.00 0.00 0.00 99 1019.5
20260501210004 19 0.0 0.0 0.00 0.00 0.00 99 1019.5
20260501205456 19 0.0 0.0 0.00 0.00 0.00 99 1019.5
20260501204956 19 0.0 0.0 0.00 0.00 0.00 99 1019.6
20260501204440 19 0.0 0.0 0.00 0.00 0.00 99 1019.6
20260501203932 19 0.0 0.0 0.00 0.00 0.00 99 1019.6
20260501203423 18 0.0 0.0 0.00 0.00 0.00 99 1019.6
20260501202916 19 0.0 0.0 0.00 0.00 0.00 99 1019.5
20260501202407 18 0.0 0.0 0.00 0.00 0.00 99 1019.4
20260501201912 18 0.0 0.0 0.00 0.00 0.00 99 1019.3
20260501201356 18 0.0 0.0 0.00 0.00 0.00 99 1019.2
20260501200852 18 0.0 0.0 0.00 0.00 0.00 99 1019.2
20260501200344 18 0.0 0.0 0.00 0.00 0.00 99 1019.1
20260501195836 18 0.0 0.0 0.00 0.00 0.00 99 1019.1
20260501195328 18 0.0 0.0 0.00 0.00 0.00 99 1019.2
20260501194828 18 0.0 0.0 0.00 0.00 0.00 99 1019.1
20260501194311 19 0.0 0.0 0.00 0.00 0.00 99 1019.1
20260501193803 19 0.0 0.0 0.00 0.00 0.00 99 1019.2
20260501193255 19 0.0 0.0 0.00 0.00 0.00 99 1019.1
20260501192747 19 0.0 0.0 0.00 0.00 0.00 99 1019.2
20260501192239 19 0.0 0.0 0.00 0.00 0.00 99 1019.2
20260501191739 20 0.0 0.0 0.00 0.00 0.00 99 1019.2
20260501191223 19 0.0 0.0 0.00 0.00 0.00 99 1019.2
20260501190714 19 0.0 0.0 0.00 0.00 0.00 99 1019.1
20260501190206 19 0.0 0.0 0.00 0.00 0.00 99 1019.1
20260501185658 20 0.0 0.0 0.00 0.00 0.00 99 1019.0
20260501185150 20 0.0 0.0 0.00 0.00 0.00 99 1018.9
20260501184651 20 0.0 0.0 0.00 0.00 0.00 99 1018.8
20260501184133 20 0.0 0.0 0.00 0.00 0.00 99 1018.9
20260501183625 20 0.0 0.0 0.00 0.00 0.00 99 1018.9
20260501183117 20 0.0 0.0 0.00 0.00 0.00 99 1018.9
20260501182609 21 0.0 0.0 0.00 0.00 0.00 99 1019.0
20260501182101 21 0.0 0.0 0.00 0.00 0.00 99 1019.0
20260501181600 21 0.0 0.0 0.00 0.00 0.00 99 1019.0
20260501181044 21 0.0 0.0 0.00 0.00 0.00 99 1019.0
20260501180542 22 0.0 0.0 0.00 0.00 0.00 99 1018.9
20260501180032 22 0.0 0.0 0.00 0.00 0.00 99 1018.9
20260501175524 22 0.0 0.0 0.00 0.00 0.00 99 1019.0
20260501175016 22 0.0 0.0 0.00 0.00 0.00 99 1018.9
20260501174516 22 0.0 0.0 0.00 0.00 0.00 99 1018.7
20260501173959 22 0.0 0.0 0.00 0.00 0.00 99 1018.8
20260501173451 22 0.0 0.0 0.00 0.00 0.00 99 1018.8
20260501172943 22 0.0 0.0 0.00 0.00 0.00 99 1018.9
20260501172435 22 0.0 0.0 0.00 0.00 0.00 99 1019.0
20260501171927 23 0.0 0.0 0.00 0.00 0.00 99 1018.9
20260501171427 23 0.0 0.0 0.00 0.00 0.00 99 1018.9
20260501170915 23 0.0 0.0 0.00 0.00 0.00 99 1018.9
20260501170407 24 0.0 0.0 0.00 0.00 0.00 99 1018.8
20260501165859 24 0.0 0.0 0.00 0.00 0.00 99 1018.9
20260501165351 24 0.0 0.0 0.00 0.00 0.00 99 1019.0
20260501164843 25 0.0 0.0 0.00 0.00 0.00 99 1018.9
20260501164343 26 0.0 0.0 0.00 0.00 0.00 99 1019.0
20260501163827 25 0.0 0.0 0.00 0.00 0.00 99 1018.9
20260501163319 25 0.0 0.0 0.00 0.00 0.00 99 1019.0
20260501162810 25 0.0 0.0 0.00 0.00 0.00 99 1018.9
20260501162305 25 0.0 0.0 0.00 0.00 0.00 99 1018.9
20260501161754 25 0.0 0.0 0.00 0.00 0.00 99 1018.9
20260501161254 25 0.0 0.0 0.00 0.00 0.00 99 1018.9
20260501160737 25 0.0 0.0 0.00 0.00 0.00 99 1019.1